Location: ?????
(55.8833°N, 37.6500°E)
Time: 01:37:38
(UTC+00:00)

Lacrosse 4 Rocket - Pass Details

Date: 27 February 2020
Orbit: 537 x 622 km, 68.0° (Epoch: 05 April)

Event Time Altitude Azimuth Distance (km) Brightness Sun altitude
Rises 19:28:19 0° 311° (NW) 2,859 6.0 -35.6°
Reaches altitude 10° 19:31:02 10° 328° (NNW) 1,969 4.9 -35.9°
Enters shadow 19:32:19 16° 342° (NNW) 1,641 4.3 -36.0°
